Hourly Data Report for October 30, 2016

All times are specified in Local Standard Time (LST). Add 1 hour to adjust for Daylight Saving Time where and when it is observed.

HALL BEACH A
NUNAVUT

68°46'33.000" N
81°14'33.000" W
9.10 m
2402354
71293
YUX

Related Data

No related data is available for this station

Download Data

Hourly Data (October 2016)
Hourly Data Report for October 30, 2016
Temp Definition
°C
Dew Point Temp Definition
°C
Rel Hum Definition
%
Wind Dir Definition
10's deg

Wind Spd Definition
km/h
Visibility Definition
km
Stn Press Definition
kPa
Hmdx Definition


Wind Chill Definition


Weather Definition


TIME
00:00 Legend Double Dagger -5.4 -6.1 95 9 9 16.1 99.56   -9 LegendNANA
01:00 Legend Double Dagger -3.5 -5.1 89 7 24 16.1 99.56   -10 LegendNANA
02:00 Legend Double Dagger -3.5 -4.8 91 6 21 16.1 99.57   -10 LegendNANA
03:00 Legend Double Dagger -3.7 -4.1 97 3 11 4.8 99.55   -8 Snow
04:00 Legend Double Dagger -2.7 -3.1 97 4 18 4.0 99.50   -8 Snow
05:00 Legend Double Dagger -2.5 -2.9 97 5 21 8.1 99.49   -9 Snow
06:00 Legend Double Dagger -2.5 -2.9 97 7 28 4.8 99.48   -10 Snow
07:00 Legend Double Dagger -2.2 -2.6 97 7 34 2.8 99.50   -10 Freezing Rain,Snow
08:00 Legend Double Dagger -2.4 -3.1 95 6 39 2.4 99.47   -11 Snow
09:00 Legend Double Dagger -2.2 -3.3 92 6 39 4.8 99.44   -10 Snow
10:00 Legend Double Dagger -2.1 -2.9 94 8 28 6.4 99.47   -9 Snow
11:00 Legend Double Dagger -2.4 -3.2 94 9 22 16.1 99.54   -9 LegendNANA
12:00 Legend Double Dagger -2.0 -3.1 93 10 22 16.1 99.63   -8 Snow
13:00 Legend Double Dagger -2.6 -4.4 88 11 24 16.1 99.71   -9 LegendNANA
14:00 Legend Double Dagger -4.1 -5.7 89 16 28 16.1 99.83   -12 LegendNANA
15:00 Legend Double Dagger -4.3 -6.3 86 15 18 16.1 99.95   -10 LegendNANA
16:00 Legend Double Dagger -4.6 -7.5 80 11 13 16.1 100.01   -10 LegendNANA
17:00 Legend Double Dagger -4.7 -7.2 83 9 11 16.1 100.05   -9 LegendNANA
18:00 Legend Double Dagger -4.8 -7.7 80 7 11 16.1 100.06   -9 LegendNANA
19:00 Legend Double Dagger -4.7 -7.0 84 4 13 16.1 100.05   -10 LegendNANA
20:00 Legend Double Dagger -5.3 -6.5 91 35 11 16.1 99.99   -10 LegendNANA
21:00 Legend Double Dagger -5.2 -5.9 95 33 22 6.4 99.94   -12 Fog
22:00 Legend Double Dagger -3.7 -5.4 88 4 26 6.4 99.87   -11 Snow
23:00 Legend Double Dagger -3.3 -4.3 93 3 30 4.8 99.82   -11 Snow

Notes on Data Quality.

Legend

  • E = Estimated
  • M = Missing
  • NA = Not Available
  • ‡ = Partner data that is not subject to review by the National Climate Archives
Date modified: